Benson, MN

6:29 PM CST on December 15, 2017 (GMT -0600)
Benson Municipal

Weather History for KBBB - September, 2013

Change the Weather History Date:

Thursday, September 19, 2013

  Actual Average Record
Temperature  
Mean Temperature 66 °F -  
Max Temperature 75 °F 72 °F 95 °F (1984)
Min Temperature 55 °F 49 °F 34 °F (1971)
Cooling Degree Days 1    
Growing Degree Days 16 (Base 50)    
Moisture  
Dew Point 61 °F    
Average Humidity 79    
Maximum Humidity 100    
Minimum Humidity 41    
Precipitation  
Precipitation 0.00 in - - ()
Sea Level Pressure  
Sea Level Pressure 29.75 in    
Wind  
Wind Speed 9 mph (NNW)    
Max Wind Speed 17 mph    
Max Gust Speed 23 mph    
Visibility 9 miles    
Events Rain , Thunderstorm    
Averages and records for this station are not official NWS values.
T = Trace of Precipitation, MM = Missing Value Source: NWS Daily Summary

Daily Weather History Graph

Daily Weather History Graph

Search for Another Location

Airport or City:

Trip Planner

Search our weather history database for the weather conditions in past years. The results will help you decide how hot, cold, wet, or windy it might be!

Date:

Astronomy

Sep. 19, 2013 Rise Set
Actual Time 7:06 AM CDT 7:25 PM CDT
Civil Twilight 6:36 AM CDT 7:54 PM CDT
Nautical Twilight 6:01 AM CDT 8:29 PM CDT
Astronomical Twilight 5:25 AM CDT 9:05 PM CDT
Moon 7:20 PM CDT (9/19) 7:19 AM CDT (9/19)
Length of Visible Light 13h 18m
Length of Day
12h 19m
Full, 100% of the Moon is Illuminated
Sep 19
Full
Sep 26
Last Quarter
Oct 4
New
Oct 11
First Quarter
Oct 18
Full

Hourly Weather History & Observations

Time (CDT) Temp. Dew Point Humidity Pressure Visibility Wind Dir Wind Speed Gust Speed Precip Events Conditions
12:12 AM 73.4 °F 68.0 °F 83% 29.64 in 10.0 mi SSW 6.9 mph - N/A   Clear
12:32 AM 73.4 °F 68.0 °F 83% 29.65 in 10.0 mi SSW 3.5 mph - N/A   Scattered Clouds
12:53 AM 73.4 °F 68.0 °F 83% 29.66 in 10.0 mi SSE 3.5 mph - N/A Rain Light Rain
1:12 AM 71.6 °F 69.8 °F 94% 29.67 in 10.0 mi Calm Calm - N/A Rain Light Rain
1:32 AM 71.6 °F 68.0 °F 88% 29.68 in 10.0 mi Calm Calm - N/A Rain , Thunderstorm Light Thunderstorms and Rain
1:53 AM 71.6 °F 68.0 °F 88% 29.69 in 10.0 mi North 6.9 mph - N/A Rain Light Rain
2:12 AM 71.6 °F 69.8 °F 94% 29.73 in 10.0 mi NW 12.7 mph - N/A Rain , Thunderstorm Light Thunderstorms and Rain
2:33 AM 71.6 °F 69.8 °F 94% 29.65 in 7.0 mi ENE 11.5 mph 16.1 mph N/A Rain Light Rain
2:52 AM 71.6 °F 68.0 °F 88% 29.61 in 10.0 mi NE 13.8 mph 21.9 mph N/A Rain Light Rain
3:13 AM 71.6 °F 66.2 °F 83% 29.60 in 10.0 mi SSE 9.2 mph 18.4 mph N/A Rain Light Rain
3:33 AM 73.4 °F 68.0 °F 83% 29.60 in 10.0 mi SSE 15.0 mph 19.6 mph N/A   Mostly Cloudy
3:52 AM 73.4 °F 69.8 °F 88% 29.65 in 7.0 mi Calm Calm - N/A Rain , Thunderstorm Light Thunderstorms and Rain
4:12 AM 71.6 °F 68.0 °F 88% 29.66 in 10.0 mi East 3.5 mph 17.3 mph N/A Rain , Thunderstorm Light Thunderstorms and Rain
4:33 AM 71.6 °F 68.0 °F 88% 29.62 in 10.0 mi SE 8.1 mph - N/A Rain Light Rain
4:52 AM 71.6 °F 68.0 °F 88% 29.68 in 10.0 mi NNW 16.1 mph 21.9 mph N/A Rain Light Rain
5:11 AM 69.8 °F 66.2 °F 88% 29.71 in 10.0 mi West 8.1 mph - N/A Rain Light Rain
5:32 AM 69.8 °F 66.2 °F 88% 29.65 in 7.0 mi West 4.6 mph - N/A Rain Light Rain
5:53 AM 68.0 °F 66.2 °F 94% 29.67 in 7.0 mi NNW 10.4 mph - N/A   Mostly Cloudy
6:12 AM 68.0 °F 66.2 °F 94% 29.66 in 5.0 mi SE 8.1 mph - N/A Rain , Thunderstorm Heavy Thunderstorms and Rain
6:32 AM 69.8 °F 66.2 °F 88% 29.65 in 10.0 mi SE 5.8 mph - N/A Rain , Thunderstorm Thunderstorms and Rain
6:52 AM 68.0 °F 66.2 °F 94% 29.68 in 7.0 mi NNW 8.1 mph - N/A Rain , Thunderstorm Rain
7:12 AM 66.2 °F 64.4 °F 94% 29.64 in 7.0 mi ESE 4.6 mph - N/A Rain , Thunderstorm Rain
7:33 AM 66.2 °F 64.4 °F 94% 29.65 in 10.0 mi NNE 8.1 mph - N/A Rain Light Rain
7:52 AM 66.2 °F 64.4 °F 94% 29.68 in 10.0 mi NNW 10.4 mph - N/A   Light Drizzle
8:12 AM 66.2 °F 64.4 °F 94% 29.70 in 7.0 mi NW 4.6 mph - N/A Rain Light Rain
8:33 AM 66.2 °F 62.6 °F 88% 29.71 in 10.0 mi NW 3.5 mph - N/A Rain , Thunderstorm Light Thunderstorms and Rain
8:52 AM 66.2 °F 64.4 °F 94% 29.72 in 10.0 mi NNW 6.9 mph - N/A Rain Light Rain
9:13 AM 66.2 °F 62.6 °F 88% 29.78 in 7.0 mi West 9.2 mph - N/A Rain Light Rain
9:32 AM 64.4 °F 62.6 °F 94% 29.78 in 5.0 mi West 8.1 mph - N/A Rain Rain
9:52 AM 64.4 °F 64.4 °F 100% 29.76 in 7.0 mi West 5.8 mph - N/A Rain Rain
10:13 AM 64.4 °F 64.4 °F 100% 29.75 in 4.0 mi NW 3.5 mph - N/A Rain Rain
10:32 AM 64.4 °F 64.4 °F 100% 29.68 in 10.0 mi ENE 13.8 mph - N/A Rain Rain
10:52 AM 64.4 °F 62.6 °F 94% 29.71 in 10.0 mi North 13.8 mph - N/A Rain Light Rain
11:13 AM 64.4 °F 62.6 °F 94% 29.73 in 10.0 mi North 11.5 mph - N/A Rain , Thunderstorm Light Thunderstorms and Rain
11:32 AM 64.4 °F 62.6 °F 94% 29.76 in 10.0 mi NNW 13.8 mph - N/A   Light Drizzle
11:53 AM 64.4 °F 62.6 °F 94% 29.77 in 10.0 mi NNW 13.8 mph 19.6 mph N/A Rain Light Rain
12:13 PM 64.4 °F 62.6 °F 94% 29.77 in 10.0 mi North 15.0 mph 19.6 mph N/A   Overcast
12:32 PM 66.2 °F 62.6 °F 88% 29.78 in 10.0 mi North 17.3 mph 21.9 mph N/A   Overcast
12:53 PM 66.2 °F 62.6 °F 88% 29.78 in 10.0 mi North 16.1 mph 19.6 mph N/A   Overcast
1:13 PM 66.2 °F 62.6 °F 88% 29.78 in 10.0 mi NNW 17.3 mph 21.9 mph N/A   Overcast
1:32 PM 66.2 °F 62.6 °F 88% 29.79 in 10.0 mi North 16.1 mph 21.9 mph N/A   Overcast
1:53 PM 69.8 °F 62.6 °F 78% 29.78 in 10.0 mi NNW 13.8 mph - N/A   Overcast
2:12 PM 69.8 °F 62.6 °F 78% 29.78 in 10.0 mi NNW 12.7 mph - N/A   Mostly Cloudy
2:32 PM 71.6 °F 62.6 °F 73% 29.78 in 10.0 mi North 15.0 mph 19.6 mph N/A   Scattered Clouds
2:53 PM 73.4 °F 59.0 °F 61% 29.78 in 10.0 mi North 16.1 mph 21.9 mph N/A   Clear
3:12 PM 71.6 °F 57.2 °F 60% 29.78 in 10.0 mi North 15.0 mph - N/A   Clear
3:32 PM 71.6 °F 60.8 °F 69% 29.79 in 10.0 mi NNW 12.7 mph 17.3 mph N/A   Clear
3:53 PM 75.2 °F 57.2 °F 53% 29.78 in 10.0 mi NNW 17.3 mph 23.0 mph N/A   Clear
4:12 PM 75.2 °F 55.4 °F 50% 29.77 in 10.0 mi North 13.8 mph 20.7 mph N/A   Clear
4:32 PM 75.2 °F 55.4 °F 50% 29.78 in 10.0 mi NNW 13.8 mph 20.7 mph N/A   Clear
4:53 PM 75.2 °F 51.8 °F 44% 29.79 in 10.0 mi NNW 15.0 mph 18.4 mph N/A   Clear
5:12 PM 75.2 °F 51.8 °F 44% 29.79 in 10.0 mi NNW 11.5 mph 23.0 mph N/A   Clear
5:33 PM 75.2 °F 50.0 °F 41% 29.80 in 10.0 mi NW 16.1 mph - N/A   Clear
5:52 PM 73.4 °F 50.0 °F 44% 29.80 in 10.0 mi NNW 15.0 mph - N/A   Clear
6:12 PM 71.6 °F 50.0 °F 46% 29.81 in 10.0 mi NNW 9.2 mph - N/A   Clear
6:33 PM 69.8 °F 53.6 °F 56% 29.81 in 10.0 mi NNW 9.2 mph - N/A   Clear
6:52 PM 69.8 °F 53.6 °F 56% 29.81 in 10.0 mi NNW 12.7 mph 17.3 mph N/A   Clear
7:12 PM 66.2 °F 53.6 °F 64% 29.83 in 10.0 mi NNW 10.4 mph - N/A   Clear
7:33 PM 66.2 °F 51.8 °F 60% 29.83 in 10.0 mi NNW 9.2 mph - N/A   Clear
7:52 PM 64.4 °F 51.8 °F 64% 29.83 in 10.0 mi NNW 9.2 mph - N/A   Clear
8:12 PM 62.6 °F 51.8 °F 68% 29.84 in 10.0 mi NW 8.1 mph - N/A   Clear
8:33 PM 62.6 °F 51.8 °F 68% 29.84 in 10.0 mi NNW 13.8 mph 19.6 mph N/A   Clear
8:52 PM 62.6 °F 51.8 °F 68% 29.85 in 10.0 mi NNW 13.8 mph - N/A   Clear
9:12 PM 62.6 °F 51.8 °F 68% 29.85 in 10.0 mi NNW 15.0 mph 20.7 mph N/A   Clear
9:33 PM 62.6 °F 51.8 °F 68% 29.85 in 10.0 mi NNW 15.0 mph 19.6 mph N/A   Clear
9:52 PM 60.8 °F 51.8 °F 72% 29.85 in 10.0 mi NNW 17.3 mph 23.0 mph N/A   Clear
10:13 PM 60.8 °F 51.8 °F 72% 29.87 in 10.0 mi NNW 16.1 mph 21.9 mph N/A   Clear
10:32 PM 59.0 °F 51.8 °F 77% 29.86 in 10.0 mi North 16.1 mph 23.0 mph N/A   Scattered Clouds
10:52 PM 57.2 °F 51.8 °F 82% 29.86 in 10.0 mi NNW 16.1 mph 20.7 mph N/A Rain Light Rain
11:12 PM 57.2 °F 51.8 °F 82% 29.87 in 10.0 mi NNW 13.8 mph - N/A Rain Light Rain
11:33 PM 57.2 °F 51.8 °F 82% 29.88 in 10.0 mi NNW 11.5 mph - N/A   Mostly Cloudy
11:52 PM 55.4 °F 51.8 °F 88% 29.88 in 10.0 mi NW 11.5 mph - N/A   Scattered Clouds